Chitose AB, Japan

2:53 PM JST on July 19, 2018 (GMT +0900)
New Chitose

Weather History for RJCC - January, 2018

Change the Weather History Date:

Saturday, January 13, 2018

  Actual Average Record
Temperature  
Mean Temperature 16 °F -  
Max Temperature 30 °F 28 °F 39 °F (2003)
Min Temperature 3 °F 7 °F -9 °F (2001)
Degree Days  
Heating Degree Days 48    
Moisture  
Dew Point 13 °F    
Average Humidity 86    
Maximum Humidity 100    
Minimum Humidity 47    
Precipitation  
Precipitation 0.00 in - - ()
Sea Level Pressure  
Sea Level Pressure 30.13 in    
Wind  
Wind Speed 3 mph ()    
Max Wind Speed 9 mph    
Max Gust Speed -    
Visibility 5.0 miles    
Events Fog , Snow    
Averages and records for this station are not official NWS values.
T = Trace of Precipitation, MM = Missing Value Source: Averaged Metar Reports

Daily Weather History Graph

Daily Weather History Graph

Search for Another Location

Airport or City:

Astronomy

Jan. 13, 2018 Rise Set
Actual Time 7:02 AM JST 4:21 PM JST
Civil Twilight 6:30 AM JST 4:53 PM JST
Nautical Twilight 5:55 AM JST 5:28 PM JST
Astronomical Twilight 5:21 AM JST 6:02 PM JST
Moon 3:27 AM JST (1/13) 1:34 PM JST (1/13)
Length of Visible Light 10h 22m
Length of Day
9h 19m
Waning Crescent, 14% of the Moon is Illuminated
Jan 13
Waning Crescent
Jan 17
New
Jan 25
First Quarter
Jan 31
Full
Feb 8
Last Quarter

Hourly Weather History & Observations

Time (JST) Temp. Windchill Dew Point Humidity Pressure Visibility Wind Dir Wind Speed Gust Speed Precip Events Conditions
12:00 AM 15.8 °F 7.2 °F 14.0 °F 93% 30.09 in 6.2 mi North 5.8 mph - N/A   Scattered Clouds
12:30 AM 15.8 °F 10.2 °F 12.2 °F 86% 30.09 in 6.2 mi NNW 3.5 mph - N/A   Partly Cloudy
1:00 AM 15.8 °F - 14.0 °F 93% 30.09 in 6.2 mi North 2.3 mph - N/A   Scattered Clouds
1:30 AM 14.0 °F - 14.0 °F 100% 30.09 in 6.2 mi NNW 2.3 mph - N/A Fog Patches of Fog
2:00 AM 12.2 °F - 10.4 °F 92% 30.09 in 6.2 mi Calm Calm - N/A Fog Patches of Fog
2:30 AM 12.2 °F - 12.2 °F 100% 30.09 in 6.2 mi ESE 1.2 mph - N/A   Scattered Clouds
3:00 AM 10.4 °F - 8.6 °F 92% 30.09 in 6.2 mi NNW 2.3 mph - N/A   Scattered Clouds
3:30 AM 8.6 °F - 6.8 °F 92% 30.09 in 6.2 mi North 1.2 mph - N/A   Partly Cloudy
4:00 AM 10.4 °F 4.0 °F 8.6 °F 92% 30.09 in 6.2 mi NNW 3.5 mph - N/A   Partly Cloudy
4:30 AM 8.6 °F - 6.8 °F 92% 30.09 in 6.2 mi Variable 2.3 mph - N/A   Partly Cloudy
5:00 AM 8.6 °F 0.1 °F 8.6 °F 100% 30.09 in 6.2 mi North 4.6 mph - N/A   Partly Cloudy
5:30 AM 8.6 °F 0.1 °F 6.8 °F 92% 30.09 in 6.2 mi NNW 4.6 mph - N/A Fog Patches of Fog
6:00 AM 5.0 °F - 3.2 °F 92% 30.12 in 6.2 mi Variable 1.2 mph - N/A Fog Patches of Fog
6:30 AM 6.8 °F -0.1 °F 5.0 °F 92% 30.12 in 6.2 mi NW 3.5 mph - N/A   Partly Cloudy
7:00 AM 3.2 °F -4.2 °F -0.4 °F 85% 30.12 in 6.2 mi North 3.5 mph - N/A   Partly Cloudy
7:30 AM 3.2 °F -4.2 °F -0.4 °F 85% 30.12 in 6.2 mi NE 3.5 mph - N/A   Partly Cloudy
8:00 AM 6.8 °F - 5.0 °F 92% 30.12 in 5.0 mi Variable 2.3 mph - N/A   Scattered Clouds
8:30 AM 8.6 °F - 6.8 °F 92% 30.12 in 6.2 mi Variable 1.2 mph - N/A   Scattered Clouds
9:00 AM 10.4 °F - 8.6 °F 92% 30.12 in 6.2 mi Variable 1.2 mph - N/A   Partly Cloudy
9:30 AM 14.0 °F 8.2 °F 12.2 °F 93% 30.12 in 6.2 mi NNE 3.5 mph - N/A   Partly Cloudy
10:00 AM 19.4 °F - 14.0 °F 80% 30.12 in 6.2 mi Variable 2.3 mph - N/A   Partly Cloudy
10:30 AM 23.0 °F - 15.8 °F 74% 30.12 in 6.2 mi Variable 2.3 mph - N/A   Partly Cloudy
11:00 AM 23.0 °F - 15.8 °F 74% 30.12 in 6.2 mi Variable 1.2 mph - N/A   Partly Cloudy
11:30 AM 26.6 °F - 17.6 °F 69% 30.09 in 6.2 mi North 1.2 mph - N/A   Partly Cloudy
12:00 PM 28.4 °F - 15.8 °F 59% 30.09 in 6.2 mi Variable 1.2 mph - N/A   Partly Cloudy
12:30 PM 28.4 °F - 14.0 °F 55% 30.09 in 6.2 mi Variable 1.2 mph - N/A   Partly Cloudy
1:00 PM 28.4 °F - 14.0 °F 55% 30.06 in 6.2 mi Variable 1.2 mph - N/A   Partly Cloudy
1:30 PM 30.2 °F - 14.0 °F 51% 30.06 in 6.2 mi Variable 1.2 mph - N/A   Partly Cloudy
2:00 PM 30.2 °F - 12.2 °F 47% 30.06 in 6.2 mi Variable 1.2 mph - N/A   Partly Cloudy
2:30 PM 30.2 °F - 12.2 °F 47% 30.09 in 6.2 mi ENE 2.3 mph - N/A   Partly Cloudy
3:00 PM 30.2 °F 26.7 °F 14.0 °F 51% 30.09 in 6.2 mi SE 3.5 mph - N/A   Partly Cloudy
3:30 PM 26.6 °F 21.2 °F 12.2 °F 55% 30.09 in 6.2 mi Variable 4.6 mph - N/A   Partly Cloudy
4:00 PM 23.0 °F 13.9 °F 15.8 °F 74% 30.12 in 6.2 mi NW 8.1 mph - N/A   Partly Cloudy
4:30 PM 23.0 °F 13.1 °F 15.8 °F 74% 30.12 in 6.2 mi NNW 9.2 mph - N/A   Partly Cloudy
5:00 PM 19.4 °F 12.8 °F 14.0 °F 80% 30.12 in 6.2 mi North 4.6 mph - N/A   Partly Cloudy
5:30 PM 19.4 °F 9.5 °F 14.0 °F 80% 30.15 in 6.2 mi North 8.1 mph - N/A   Partly Cloudy
6:00 PM 15.8 °F 8.6 °F 14.0 °F 93% 30.15 in 6.2 mi North 4.6 mph - N/A Snow Light Snow Showers
6:30 PM 19.4 °F 14.3 °F 17.6 °F 93% 30.15 in 6.2 mi NNW 3.5 mph - N/A   Partly Cloudy
7:00 PM 19.4 °F 9.5 °F 17.6 °F 93% 30.15 in 6.2 mi North 8.1 mph - N/A Snow Light Snow Showers
7:16 PM 21.2 °F 10.9 °F 19.4 °F 93% 30.18 in - NNW 9.2 mph - N/A Snow Light Snow Showers
7:30 PM 17.6 °F 10.7 °F 15.8 °F 93% 30.18 in 2.5 mi NNW 4.6 mph - N/A Snow Light Snow Showers
7:47 PM 19.4 °F 14.3 °F 19.4 °F 100% 30.18 in 4.3 mi NNE 3.5 mph - N/A Snow Light Snow Showers
8:00 PM 21.2 °F 13.6 °F 21.2 °F 100% 30.18 in 6.2 mi NNE 5.8 mph - N/A Snow Light Snow Showers
8:30 PM 17.6 °F 10.7 °F 17.6 °F 100% 30.18 in 6.2 mi North 4.6 mph - N/A   Partly Cloudy
9:00 PM 17.6 °F 10.7 °F 17.6 °F 100% 30.18 in 6.2 mi North 4.6 mph - N/A   Partly Cloudy
9:30 PM 15.8 °F 10.2 °F 14.0 °F 93% 30.18 in 6.2 mi NNW 3.5 mph - N/A   Partly Cloudy
9:48 PM 14.0 °F 5.1 °F 14.0 °F 100% 30.18 in 2.5 mi WNW 5.8 mph - N/A Fog Light Freezing Fog
10:00 PM 14.0 °F 5.1 °F 14.0 °F 100% 30.18 in 0.6 mi NW 5.8 mph - N/A Fog Light Freezing Fog
10:21 PM 14.0 °F 6.5 °F 14.0 °F 100% 30.18 in 1.4 mi NNW 4.6 mph - N/A Fog Light Freezing Fog
10:23 PM 14.0 °F 6.5 °F 12.2 °F 93% 30.18 in 0.6 mi NNW 4.6 mph - N/A Fog Light Freezing Fog
10:26 PM 12.2 °F 2.9 °F 12.2 °F 100% 30.18 in 0.6 mi NNW 5.8 mph - N/A Fog Light Freezing Fog
10:30 PM 15.8 °F 7.2 °F 14.0 °F 93% 30.18 in 0.6 mi NNW 5.8 mph - N/A Fog Light Freezing Fog
10:35 PM 12.2 °F 1.7 °F 12.2 °F 100% 30.18 in 0.6 mi NW 6.9 mph - N/A Fog Light Freezing Fog
10:44 PM 12.2 °F 2.9 °F 12.2 °F 100% 30.18 in 0.6 mi NW 5.8 mph - N/A Fog Light Freezing Fog
10:49 PM 12.2 °F 2.9 °F 12.2 °F 100% 30.18 in 0.6 mi NNW 5.8 mph - N/A Fog Light Freezing Fog
11:00 PM 14.0 °F 6.5 °F 12.2 °F 93% 30.18 in 0.6 mi NNW 4.6 mph - N/A Fog Light Freezing Fog
11:30 PM 15.8 °F - 14.0 °F 93% 30.21 in 0.6 mi NW 2.3 mph - N/A Fog Light Freezing Fog
11:40 PM 15.8 °F - 14.0 °F 93% 30.21 in 1.6 mi NW 2.3 mph - N/A Fog Patches of Fog